Tracking 18945 objects as of 19-Jan-2018
HD Live streaming from Space Station
objects crossing your sky now

WESTFORD NEEDLES

Track WESTFORD NEEDLES now!
10-day predictions
WESTFORD NEEDLES is classified as:


NORAD ID: 2377
Int'l Code: 1963-014X
Perigee: 3,001.8 km
Apogee: 4,255.1 km
Inclination: 87.4 °
Period: 165.9 minutes
Semi major axis: 9999 km
RCS: 0.1884 m2 (medium)
Launch date: May 9, 1963
Source: United States (US)
Launch site: AIR FORCE WESTERN TEST RANGE (AFWTR)
aabbcc
Your satellite tracking list
Your tracking list is empty




NASA's NSSDC Master Catalog

Two Line Element Set (TLE):
1  2377U 63014X   18018.24018216 +.00001629 +00000-0 +60728+0 0  9995
2  2377 087.3783 106.4895 0626673 298.6877 055.2370 08.68241653659125
Source of the keplerian elements: AFSPC